Location: Cherry Springs State Park
(41.6616°N, 77.8240°W)
Time: 03:35:29
(UTC-04:00)

Daily predictions for brighter satellites

Satellite Brightness Start Highest point End
(mag) Time Altitude Azimuth Time Altitude Azimuth Time Altitude Azimuth
H-2A R/B 4.3 00:10:18 22° NW 00:10:18 22° NW 00:12:08 10° NNW
ATLAS 3B R/B 4.1 00:06:41 10° WNW 00:11:07 24° W 00:11:07 24° W
Cosmos 2219 Rocket 3.1 00:14:24 45° NW 00:14:24 45° NW 00:19:07 10° NNE
COSMOS 2428 4.3 00:17:01 26° W 00:18:25 29° NW 00:23:21 10° N
SL-16 R/B 4.0 00:21:37 22° NE 00:21:37 22° NE 00:23:46 10° NE
CZ-2C R/B 3.9 00:16:15 10° NNE 00:19:21 35° NNE 00:19:21 35° NNE
Terra 4.2 00:24:36 16° WNW 00:24:36 16° WNW 00:26:23 10° NW
NOSS 3-2 (C) 4.2 00:19:40 10° NW 00:26:27 62° W 00:26:27 62° W
Cosmos 2333 Rocket 3.3 00:32:48 40° NW 00:32:48 40° NW 00:37:17 10° NNE
NOSS 3-4 (A) 4.4 00:54:00 41° NW 00:54:23 41° NW 01:00:32 10° NNE
NOSS 3-4 (C) 4.4 00:54:09 42° NW 00:54:28 42° NW 01:00:38 10° NNE
Mayak 1.6 00:51:36 10° NNE 00:52:18 15° NNE 00:52:18 15° NNE
Cosmos 2237 Rocket 3.5 00:57:08 35° NNW 00:57:08 35° NNW 01:01:14 10° N
Cosmos 2369 Rocket 4.1 00:55:24 10° N 00:59:40 21° NE 00:59:57 21° NE
CENTAUR R/B 3.1 00:57:22 10° NW 01:04:37 77° NW 01:04:37 77° NW
USA 215 3.6 01:13:10 62° N 01:13:10 62° N 01:19:02 10° NW
ATLAS CENTAUR R/B 3.9 01:28:41 10° NW 01:35:02 39° NW 01:35:02 39° NW
COSMOS 2455 4.3 01:39:26 10° NW 01:42:18 28° NW 01:42:18 28° NW
SL-16 R/B 3.8 02:03:29 28° NW 02:03:29 28° NW 02:07:34 10° N
Cosmos 1943 Rocket 2.9 02:26:52 10° NNW 02:31:11 49° NNE 02:31:11 49° NNE
SL-16 R/B 3.8 02:30:31 27° ESE 02:32:42 35° ENE 02:38:14 10° N
Resurs 1-4 Rocket 3.8 02:34:17 10° NE 02:38:21 25° E 02:38:21 25° E
Cosmos 2369 Rocket 3.4 02:38:32 10° NNW 02:41:42 33° NW 02:41:42 33° NW
CZ-3A R/B 3.6 02:36:29 10° NW 02:47:24 73° NE 02:52:42 10° ESE
CZ-2D R/B 3.5 02:44:15 10° NE 02:48:55 30° E 02:48:55 30° E
Cosmos 1943 3.8 02:56:08 50° NNW 02:56:08 50° NNW 03:00:50 10° NNE
Cosmos 841 Rocket 4.0 03:01:51 56° NNE 03:01:51 56° NNE 03:05:57 10° NNE
ARIANE 5 R/B 3.4 03:06:58 10° NNE 03:11:56 41° E 03:12:11 41° ESE
Cosmos 1000 Rocket 4.3 03:06:38 10° N 03:12:54 85° W 03:12:56 85° WSW
SL-08 R/B 4.3 03:15:58 40° NNW 03:15:58 40° NNW 03:19:04 10° NNW
BREEZE-M DEB (TANK) 3.8 03:13:14 53° WNW 03:14:27 65° NNW 03:32:08 10° ENE
Cosmos 1626 4.5 03:13:26 10° N 03:14:42 20° N 03:14:42 20° N
UNK 4.3 03:19:09 56° NNE 03:19:09 56° NNE 03:22:57 10° N
Cosmos 304 Rocket 4.3 03:20:35 55° N 03:20:35 55° N 03:24:23 10° NNE
Cosmos 2239 Rocket 4.3 03:19:57 80° SW 03:20:19 85° W 03:26:40 10° N
ADEOS Rocket 2.9 03:16:44 10° N 03:21:45 59° NW 03:21:45 59° NW
Cosmos 1400 Rocket 4.3 03:20:20 10° N 03:23:32 34° ENE 03:23:32 34° ENE
Cosmos 1726 4.3 03:29:16 21° E 03:29:16 21° E 03:32:06 10° NE
Cosmos 1535 Rocket 4.4 03:28:55 72° SW 03:29:33 80° W 03:35:59 10° N
IRS-1D 3.4 03:31:10 10° NNE 03:36:20 80° ESE 03:36:35 77° SE
Cosmos 2221 2.8 03:41:00 66° NNE 03:41:00 66° NNE 03:44:48 10° N
Cosmos 1805 Rocket 4.1 03:37:27 10° N 03:41:49 53° E 03:42:20 50° ESE
ADEOS 3.6 03:39:15 10° NNE 03:44:28 71° ESE 03:45:16 60° SSE
Spot 4 Rocket 3.8 03:39:39 10° NNE 03:44:50 85° WNW 03:45:09 79° SW
NPP 4.3 03:42:30 10° N 03:47:30 41° WNW 03:47:30 41° WNW
COSMOS 2406 3.3 03:47:05 56° SSE 03:48:08 70° ESE 03:53:48 10° NNE
Cosmos 2285 Rocket 4.3 03:46:52 42° SSE 03:48:58 64° ESE 03:55:17 10° NNE
Cosmos 372 Rocket 3.8 03:45:18 10° NNW 03:50:29 83° WSW 03:50:59 72° S
Cosmos 2098 Rocket 3.8 03:52:13 57° WSW 03:52:44 59° W 03:57:50 10° N
IRS-1C 4.4 03:48:27 10° N 03:53:36 49° WNW 03:53:50 49° W
CBERS 1 LM4 rocket 4.4 03:48:46 10° N 03:53:56 79° WNW 03:54:37 67° SW
Cosmos 540 Rocket 3.6 03:58:15 54° W 03:58:31 55° WNW 04:03:33 10° N
Okean O Rocket 4.4 03:56:58 10° ENE 03:58:36 12° E 04:00:15 10° ESE
Meteor 2-1 Rocket 4.4 03:58:39 50° W 03:59:04 51° WNW 04:04:29 10° N
Cosmos 1908 4.0 04:03:42 43° NNW 04:03:42 43° NNW 04:06:35 10° N
Cosmos 783 Rocket 4.4 04:05:05 58° SSW 04:06:11 84° WNW 04:11:28 10° NNE
MOS 1 Rocket 3.1 04:02:59 10° N 04:07:15 61° WNW 04:07:19 61° W
Cosmos 1300 3.2 04:12:33 44° SE 04:13:22 54° E 04:17:07 10° NNE
Cosmos 1125 Rocket 3.9 04:09:47 10° NNW 04:14:14 41° W 04:14:14 41° W
Cosmos 1943 Rocket 4.2 04:11:49 10° WNW 04:12:38 13° WNW 04:12:38 13° WNW
SL-16 R/B 2.9 04:15:37 38° WSW 04:16:13 39° W 04:22:00 10° NNW
Sich 1 3.0 04:11:49 10° N 04:16:14 84° E 04:17:46 40° SSE
BREEZE M DEB (TANK) 3.9 04:17:34 22° E 04:17:34 22° E 04:18:39 10° ESE
Resurs 1-4 Rocket 2.6 04:13:37 10° N 04:18:32 41° WNW 04:19:26 38° W
Cosmos 2123 Rocket 4.3 04:13:29 10° NNW 04:19:23 45° W 04:20:53 38° SW
CZ-2D R/B 3.2 04:16:38 10° N 04:20:40 85° WNW 04:21:16 63° SSW
Cosmos 1656 Rocket 4.1 04:18:32 10° NW 04:23:47 39° WSW 04:24:03 39° WSW
Cosmos 1315 Rocket 2.6 04:23:25 10° NNW 04:27:28 77° W 04:28:34 46° S
CZ-2D R/B 2.9 04:24:12 10° N 04:29:01 35° WNW 04:30:15 31° W
OPS 8737 4.4 04:29:28 66° W 04:29:45 71° NW 04:33:06 10° NNE
Cosmos 1459 Rocket 4.2 04:25:34 15° S 04:30:40 70° E 04:36:43 10° NNE
Cosmos 1470 Rocket 4.4 04:28:00 10° N 04:32:13 50° E 04:36:25 10° SSE
Cosmos 1538 Rocket 4.1 04:30:39 27° S 04:33:39 77° ESE 04:39:01 10° NNE
Cosmos 2228 Rocket 3.5 04:31:12 21° S 04:34:08 62° E 04:38:32 10° NNE
USA 229 DEB 3.9 04:30:08 10° NW 04:37:04 53° WSW 04:44:07 10° SSE
USA 229 3.9 04:30:14 10° NW 04:37:11 53° WSW 04:44:14 10° SSE
Cosmos 2082 Rocket 3.8 04:35:41 10° SSE 04:40:31 31° ESE 04:45:24 10° NE
Cosmos 1515 Rocket 4.0 04:37:53 16° S 04:41:14 61° E 04:45:36 10° NNE
NOSS 3-1 (A) 4.4 04:34:42 10° NNW 04:42:19 72° NE 04:50:44 10° SE
PSLV R/B 3.0 04:42:54 61° WSW 04:43:22 80° S 04:46:38 10° E
Cosmos 1633 Rocket 3.1 04:40:19 10° NNW 04:44:37 57° W 04:46:49 27° SSW
USA 161 2.6 04:47:07 24° N 04:47:07 24° N 04:48:04 10° N
Tiangong 2 3.1 04:46:42 18° SSE 04:47:14 18° SSE 04:49:34 10° ESE
Cosmos 292 Rocket 4.1 04:46:24 31° WSW 04:48:13 47° WNW 04:52:53 10° N
Cosmos 2061 Rocket 4.1 04:43:46 11° S 04:50:01 88° E 04:56:29 10° N
ARIANE 5 R/B 3.8 04:46:33 10° N 04:50:48 26° WNW 04:52:31 22° W
Lacrosse 5 3.1 04:46:04 10° NW 04:50:54 43° NE 04:55:44 10° ESE
CZ-4B R/B 3.6 04:52:01 10° NNE 04:56:27 60° E 05:00:55 10° S
CZ-4B R/B 4.3 04:52:22 10° NNE 04:57:36 44° E 05:02:42 10° S
UNKNOWN OBJECT B 4.1 04:55:29 10° NNW 04:58:55 27° WNW 05:00:00 23° W
Cosmos 1726 3.4 05:03:54 21° W 05:04:26 22° WNW 05:07:25 10° NNW
Cosmos 2369 3.8 05:01:39 10° NNW 05:07:20 79° ENE 05:12:58 10° SSE
Cosmos 1328 Rocket 3.8 05:05:17 21° SW 05:07:49 46° WNW 05:12:02 10° N
SL-27 R/B 3.7 05:08:12 21° W 05:09:03 24° WNW 05:11:55 10° N
ADEOS II 2.0 05:04:07 10° N 05:09:24 79° WNW 05:14:38 10° SSW
Cosmos 2016 Rocket 3.9 05:03:57 10° S 05:10:05 82° W 05:16:13 10° N
Cosmos 1892 2.7 05:06:41 10° N 05:10:31 82° E 05:14:22 10° S
USA 234 4.5 05:04:54 10° ENE 05:10:50 35° SE 05:16:42 10° SSW
Meteor 1-27 4.3 05:05:45 10° S 05:11:25 86° E 05:17:03 10° N
NOSS 3-1 (C) 4.1 05:04:26 10° NW 05:12:02 65° WSW 05:20:21 10° SSE
Landsat 4 4.4 05:08:58 10° SSE 05:12:36 55° ENE 05:16:18 10° N
MOS 1-B 4.4 05:07:07 10° N 05:12:54 66° WNW 05:18:37 10° SSW
Hubble Space Telescope 2.9 05:12:56 11° SSW 05:14:15 12° S 05:15:56 10° SSE
Shenzhou-11 Module 2.9 05:14:51 21° SSW 05:16:26 38° SSE 05:19:20 10° E
In-Cosmos 22 Rocket 4.3 05:11:39 10° NNW 05:16:49 48° W 05:21:53 10° SSW
PSLV R/B 3.5 05:12:58 10° NNE 05:17:20 89° WNW 05:21:38 10° SSW
BREEZE-M DEB (TANK) 3.5 05:20:14 15° SSW 05:20:14 15° SSW 05:21:43 10° S
Cosmos 1656 3.9 05:16:14 10° NNW 05:21:59 80° ENE 05:27:40 10° SSE
Cosmos 1725 Rocket 4.0 05:16:32 10° S 05:22:43 88° E 05:28:55 10° N
Cosmos 1802 Rocket 4.2 05:18:11 10° SSW 05:24:12 54° WNW 05:30:22 10° N
Cosmos 1825 4.4 05:22:24 10° NNE 05:25:48 30° ENE 05:29:12 10° SE
Cosmos 1933 Rocket 3.9 05:22:08 10° NNW 05:26:24 45° W 05:30:38 10° SSW
Cosmos 773 Rocket 4.5 05:26:23 13° SW 05:30:52 44° WNW 05:35:56 10° N
Abrixas 2.4 05:29:36 10° WNW 05:32:07 46° SSW 05:34:39 10° SE
COSMOS 2487 2.4 05:29:03 10° SSW 05:32:35 82° WNW 05:36:09 10° NNE
Okean O Rocket 1.7 05:31:00 10° N 05:35:24 63° WNW 05:39:44 10° SSW
Cosmos 1833 Rocket 2.7 05:33:48 10° SSW 05:39:27 88° WNW 05:45:08 10° NNE
Cosmos 1408 3.6 05:38:42 10° N 05:42:15 50° E 05:45:46 10° SSE
Cosmos 1151 Rocket 3.8 05:38:48 10° SW 05:42:43 34° WNW 05:46:38 10° N
Tsikada Rocket 4.0 05:37:23 10° NNW 05:43:40 71° W 05:50:00 10° S
Cosmos 1707 Rocket 4.1 05:41:10 10° S 05:45:31 63° E 05:49:53 10° NNE
Cosmos 1980 Rocket 3.0 05:47:59 10° NNW 05:53:33 59° ENE 05:59:04 10° SE
Cosmos 2278 4.1 05:51:44 10° NW 05:57:00 42° WSW 06:02:15 10° S
